Time,TemperatureF,DewpointF,PressureIn,WindDirection,WindDirectionDegrees,WindSpeedMPH,WindSpeedGustMPH,Humidity,HourlyPrecipIn,Conditions,Clouds,dailyrainin,SoftwareType,DateUTC
2013-01-01 00:01:00,38.0,26.1,29.90,SW,227,3.0,3.0,62,0.00,,,0.00,Wunderground v.1.15,2013-01-01 05:01:00,
2013-01-01 00:02:00,38.0,26.1,29.90,SW,229,2.0,3.0,62,0.00,,,0.00,Wunderground v.1.15,2013-01-01 05:02:00,
2013-01-01 00:07:00,38.0,26.1,29.90,SSW,204,2.0,3.0,62,0.00,,,0.00,Wunderground v.1.15,2013-01-01 05:07:00,
2013-01-01 00:15:00,38.0,26.5,29.89,WSW,242,3.0,3.0,63,0.00,,,0.00,Wunderground v.1.15,2013-01-01 05:15:00,
2013-01-01 00:21:00,38.0,26.5,29.89,SW,231,2.0,3.0,63,0.00,,,0.00,Wunderground v.1.15,2013-01-01 05:21:00,
2013-01-01 00:26:00,38.0,26.9,29.89,SSW,210,4.0,5.0,64,0.00,,,0.00,Wunderground v.1.15,2013-01-01 05:26:00,
2013-01-01 00:32:00,38.0,26.9,29.89,SSW,213,2.0,3.0,64,0.00,,,0.00,Wunderground v.1.15,2013-01-01 05:32:00,
2013-01-01 00:41:00,38.0,26.9,29.88,SSW,200,3.0,3.0,64,0.00,,,0.00,Wunderground v.1.15,2013-01-01 05:41:00,
2013-01-01 00:46:00,38.0,27.3,29.89,SSW,202,5.0,5.0,65,0.00,,,0.00,Wunderground v.1.15,2013-01-01 05:46:00,
2013-01-01 00:51:00,38.0,27.3,29.89,SW,214,1.0,2.0,65,0.00,,,0.00,Wunderground v.1.15,2013-01-01 05:51:00,
2013-01-01 00:57:00,38.0,27.3,29.89,SW,235,2.0,2.0,65,0.00,,,0.00,Wunderground v.1.15,2013-01-01 05:57:00,
2013-01-01 01:02:00,38.0,27.6,29.89,WSW,252,1.0,2.0,66,0.00,,,0.00,Wunderground v.1.15,2013-01-01 06:02:00,
2013-01-01 01:10:00,38.0,27.6,29.89,SSW,213,4.0,4.0,66,0.00,,,0.00,Wunderground v.1.15,2013-01-01 06:10:00,
2013-01-01 01:16:00,38.1,27.7,29.89,SW,215,2.0,4.0,66,0.00,,,0.00,Wunderground v.1.15,2013-01-01 06:16:00,
2013-01-01 01:21:00,38.1,27.7,29.89,WSW,238,2.0,2.0,66,0.00,,,0.00,Wunderground v.1.15,2013-01-01 06:21:00,
2013-01-01 01:27:00,38.2,28.2,29.89,SSW,213,4.0,4.0,67,0.00,,,0.00,Wunderground v.1.15,2013-01-01 06:27:00,
2013-01-01 01:36:00,38.3,28.3,29.90,WSW,248,2.0,3.0,67,0.00,,,0.00,Wunderground v.1.15,2013-01-01 06:36:00,
2013-01-01 01:41:00,38.4,28.8,29.90,SW,236,2.0,3.0,68,0.00,,,0.00,Wunderground v.1.15,2013-01-01 06:41:00,
2013-01-01 01:46:00,38.4,28.8,29.90,SSW,209,3.0,4.0,68,0.00,,,0.00,Wunderground v.1.15,2013-01-01 06:46:00,
2013-01-01 01:52:00,38.4,28.8,29.89,SW,229,2.0,3.0,68,0.00,,,0.00,Wunderground v.1.15,2013-01-01 06:52:00,
2013-01-01 01:57:00,38.4,28.8,29.89,SW,221,3.0,3.0,68,0.00,,,0.00,Wunderground v.1.15,2013-01-01 06:57:00,
2013-01-01 02:02:00,38.4,28.8,29.89,SW,214,1.0,3.0,68,0.00,,,0.00,Wunderground v.1.15,2013-01-01 07:02:00,
2013-01-01 02:07:00,38.4,29.1,29.89,WSW,254,2.0,3.0,69,0.00,,,0.00,Wunderground v.1.15,2013-01-01 07:07:00,
2013-01-01 02:12:00,38.4,29.1,29.88,WSW,255,1.0,3.0,69,0.00,,,0.00,Wunderground v.1.15,2013-01-01 07:12:00,
2013-01-01 02:17:00,38.3,29.0,29.88,SSW,207,1.0,4.0,69,0.00,,,0.00,Wunderground v.1.15,2013-01-01 07:17:00,
2013-01-01 02:22:00,38.3,29.0,29.88,SW,221,2.0,2.0,69,0.00,,,0.00,Wunderground v.1.15,2013-01-01 07:22:00,
2013-01-01 02:27:00,38.3,29.0,29.89,SW,222,1.0,5.0,69,0.00,,,0.00,Wunderground v.1.15,2013-01-01 07:27:00,
2013-01-01 02:32:00,38.3,29.4,29.89,SSW,203,1.0,2.0,70,0.00,,,0.00,Wunderground v.1.15,2013-01-01 07:32:00,
2013-01-01 02:38:00,38.3,29.4,29.89,WSW,253,2.0,3.0,70,0.00,,,0.00,Wunderground v.1.15,2013-01-01 07:38:00,
2013-01-01 02:43:00,38.4,29.5,29.89,SSW,203,2.0,4.0,70,0.00,,,0.00,Wunderground v.1.15,2013-01-01 07:43:00,
2013-01-01 02:48:00,38.4,29.5,29.89,SSW,204,4.0,4.0,70,0.00,,,0.00,Wunderground v.1.15,2013-01-01 07:48:00,
2013-01-01 02:53:00,38.4,29.5,29.89,SSW,207,1.0,4.0,70,0.00,,,0.00,Wunderground v.1.15,2013-01-01 07:53:00,
2013-01-01 02:58:00,38.4,29.5,29.89,South,190,1.0,4.0,70,0.00,,,0.00,Wunderground v.1.15,2013-01-01 07:58:00,
2013-01-01 03:03:00,38.4,29.5,29.89,SSW,198,1.0,2.0,70,0.00,,,0.00,Wunderground v.1.15,2013-01-01 08:03:00,
2013-01-01 03:08:00,38.5,29.9,29.89,SW,219,2.0,3.0,71,0.00,,,0.00,Wunderground v.1.15,2013-01-01 08:08:00,
2013-01-01 03:13:00,38.5,29.9,29.90,SW,227,2.0,4.0,71,0.00,,,0.00,Wunderground v.1.15,2013-01-01 08:13:00,
2013-01-01 03:18:00,38.6,30.0,29.91,SSW,206,3.0,4.0,71,0.00,,,0.00,Wunderground v.1.15,2013-01-01 08:18:00,
2013-01-01 03:23:00,38.6,30.0,29.91,WSW,244,2.0,3.0,71,0.00,,,0.00,Wunderground v.1.15,2013-01-01 08:23:00,
2013-01-01 03:28:00,38.6,30.0,29.90,SW,217,3.0,3.0,71,0.00,,,0.00,Wunderground v.1.15,2013-01-01 08:28:00,
2013-01-01 03:33:00,38.5,29.9,29.90,SSW,204,3.0,5.0,71,0.00,,,0.00,Wunderground v.1.15,2013-01-01 08:33:00,
2013-01-01 03:38:00,38.6,30.0,29.89,SW,215,2.0,5.0,71,0.00,,,0.00,Wunderground v.1.15,2013-01-01 08:38:00,
2013-01-01 03:43:00,38.5,29.9,29.89,SW,229,1.0,2.0,71,0.00,,,0.00,Wunderground v.1.15,2013-01-01 08:43:00,
2013-01-01 03:48:00,38.5,29.9,29.89,SW,223,1.0,4.0,71,0.00,,,0.00,Wunderground v.1.15,2013-01-01 08:48:00,
2013-01-01 03:53:00,38.5,29.9,29.90,WSW,241,1.0,5.0,71,0.00,,,0.00,Wunderground v.1.15,2013-01-01 08:53:00,
2013-01-01 03:58:00,38.4,29.8,29.90,WSW,251,3.0,5.0,71,0.00,,,0.00,Wunderground v.1.15,2013-01-01 08:58:00,
2013-01-01 04:03:00,38.4,29.8,29.89,SW,219,2.0,3.0,71,0.00,,,0.00,Wunderground v.1.15,2013-01-01 09:03:00,
2013-01-01 04:08:00,38.4,29.8,29.89,SW,223,2.0,3.0,71,0.00,,,0.00,Wunderground v.1.15,2013-01-01 09:08:00,
2013-01-01 04:13:00,38.5,29.9,29.89,SSW,208,1.0,3.0,71,0.00,,,0.00,Wunderground v.1.15,2013-01-01 09:13:00,
2013-01-01 04:18:00,38.4,29.8,29.90,SW,222,1.0,3.0,71,0.00,,,0.00,Wunderground v.1.15,2013-01-01 09:18:00,
2013-01-01 04:23:00,38.4,30.2,29.89,SW,219,3.0,4.0,72,0.00,,,0.01,Wunderground v.1.15,2013-01-01 09:23:00,
2013-01-01 04:28:00,38.3,30.1,29.89,SW,219,2.0,4.0,72,0.00,,,0.01,Wunderground v.1.15,2013-01-01 09:28:00,
2013-01-01 04:33:00,38.3,30.1,29.90,WSW,239,1.0,4.0,72,0.00,,,0.01,Wunderground v.1.15,2013-01-01 09:33:00,
2013-01-01 04:38:00,38.3,30.1,29.90,SW,219,2.0,4.0,72,0.00,,,0.01,Wunderground v.1.15,2013-01-01 09:38:00,
2013-01-01 04:43:00,38.2,30.0,29.89,SW,220,2.0,4.0,72,0.00,,,0.01,Wunderground v.1.15,2013-01-01 09:43:00,
2013-01-01 04:48:00,38.3,30.1,29.89,SW,220,1.0,4.0,72,0.00,,,0.01,Wunderground v.1.15,2013-01-01 09:48:00,
2013-01-01 04:53:00,38.2,30.0,29.89,SW,221,3.0,4.0,72,0.00,,,0.01,Wunderground v.1.15,2013-01-01 09:53:00,
2013-01-01 04:58:00,38.3,30.1,29.89,SW,217,2.0,5.0,72,0.00,,,0.01,Wunderground v.1.15,2013-01-01 09:58:00,
2013-01-01 05:03:00,38.2,30.0,29.89,SSW,204,0.0,3.0,72,0.00,,,0.01,Wunderground v.1.15,2013-01-01 10:03:00,
2013-01-01 05:08:00,38.2,30.0,29.88,SW,219,2.0,4.0,72,0.00,,,0.01,Wunderground v.1.15,2013-01-01 10:08:00,
2013-01-01 05:13:00,38.2,30.0,29.89,WSW,243,3.0,5.0,72,0.00,,,0.01,Wunderground v.1.15,2013-01-01 10:13:00,
2013-01-01 05:18:00,38.3,30.1,29.88,SSW,213,2.0,5.0,72,0.00,,,0.01,Wunderground v.1.15,2013-01-01 10:18:00,
2013-01-01 05:23:00,38.3,30.1,29.88,SW,228,2.0,3.0,72,0.00,,,0.01,Wunderground v.1.15,2013-01-01 10:23:00,
2013-01-01 05:28:00,38.3,30.1,29.88,SW,228,2.0,3.0,72,0.00,,,0.01,Wunderground v.1.15,2013-01-01 10:28:00,
2013-01-01 05:33:00,38.3,30.1,29.87,WSW,245,1.0,2.0,72,0.00,,,0.01,Wunderground v.1.15,2013-01-01 10:33:00,
2013-01-01 05:38:00,38.3,30.1,29.88,WSW,245,2.0,2.0,72,0.00,,,0.01,Wunderground v.1.15,2013-01-01 10:38:00,
2013-01-01 05:43:00,38.3,30.1,29.88,SW,225,2.0,2.0,72,0.00,,,0.01,Wunderground v.1.15,2013-01-01 10:43:00,
2013-01-01 05:48:00,38.4,29.8,29.88,SW,219,2.0,6.0,71,0.00,,,0.01,Wunderground v.1.15,2013-01-01 10:48:00,
2013-01-01 05:56:00,38.6,30.0,29.88,SSW,203,1.0,4.0,71,0.00,,,0.01,Wunderground v.1.15,2013-01-01 10:56:00,
2013-01-01 06:01:00,38.6,29.7,29.88,SSW,213,2.0,2.0,70,0.00,,,0.01,Wunderground v.1.15,2013-01-01 11:01:00,
2013-01-01 06:06:00,38.6,29.7,29.88,SW,225,2.0,5.0,70,0.00,,,0.01,Wunderground v.1.15,2013-01-01 11:06:00,
2013-01-01 06:11:00,38.7,29.8,29.88,SW,227,2.0,2.0,70,0.00,,,0.01,Wunderground v.1.15,2013-01-01 11:11:00,
2013-01-01 06:16:00,38.7,29.8,29.88,SW,221,1.0,3.0,70,0.00,,,0.01,Wunderground v.1.15,2013-01-01 11:16:00,
2013-01-01 06:21:00,38.6,29.7,29.89,West,262,2.0,4.0,70,0.00,,,0.01,Wunderground v.1.15,2013-01-01 11:21:00,
2013-01-01 06:26:00,38.7,29.8,29.89,SSW,210,4.0,5.0,70,0.00,,,0.01,Wunderground v.1.15,2013-01-01 11:26:00,
2013-01-01 06:32:00,38.7,29.4,29.89,SSW,213,2.0,2.0,69,0.00,,,0.01,Wunderground v.1.15,2013-01-01 11:32:00,
2013-01-01 06:37:00,38.7,29.4,29.89,WSW,254,2.0,4.0,69,0.00,,,0.01,Wunderground v.1.15,2013-01-01 11:37:00,
2013-01-01 06:42:00,38.7,29.4,29.89,WSW,246,1.0,3.0,69,0.00,,,0.01,Wunderground v.1.15,2013-01-01 11:42:00,
2013-01-01 06:47:00,38.7,29.4,29.89,SSW,211,4.0,4.0,69,0.00,,,0.01,Wunderground v.1.15,2013-01-01 11:47:00,
2013-01-01 06:52:00,38.7,29.4,29.89,SW,215,2.0,3.0,69,0.00,,,0.01,Wunderground v.1.15,2013-01-01 11:52:00,
2013-01-01 06:57:00,38.7,29.4,29.89,SW,224,3.0,4.0,69,0.00,,,0.01,Wunderground v.1.15,2013-01-01 11:57:00,
2013-01-01 07:02:00,38.7,29.0,29.90,SW,218,2.0,3.0,68,0.00,,,0.01,Wunderground v.1.15,2013-01-01 12:02:00,
2013-01-01 07:07:00,38.6,29.3,29.89,SSW,193,2.0,4.0,69,0.00,,,0.01,Wunderground v.1.15,2013-01-01 12:07:00,
2013-01-01 07:12:00,38.6,28.9,29.90,West,265,1.0,3.0,68,0.00,,,0.01,Wunderground v.1.15,2013-01-01 12:12:00,
2013-01-01 07:17:00,38.6,28.9,29.89,SW,221,2.0,4.0,68,0.00,,,0.01,Wunderground v.1.15,2013-01-01 12:17:00,
2013-01-01 07:22:00,38.6,29.3,29.89,SW,229,2.0,2.0,69,0.00,,,0.01,Wunderground v.1.15,2013-01-01 12:22:00,
2013-01-01 07:27:00,38.5,29.2,29.89,SSW,213,1.0,3.0,69,0.00,,,0.01,Wunderground v.1.15,2013-01-01 12:27:00,
2013-01-01 07:32:00,38.5,29.2,29.89,SW,223,2.0,3.0,69,0.00,,,0.01,Wunderground v.1.15,2013-01-01 12:32:00,
2013-01-01 07:37:00,38.5,29.2,29.89,WSW,246,4.0,5.0,69,0.00,,,0.01,Wunderground v.1.15,2013-01-01 12:37:00,
2013-01-01 07:42:00,38.5,29.2,29.89,WSW,244,1.0,2.0,69,0.00,,,0.01,Wunderground v.1.15,2013-01-01 12:42:00,
2013-01-01 07:47:00,38.4,29.1,29.89,SW,229,1.0,3.0,69,0.00,,,0.01,Wunderground v.1.15,2013-01-01 12:47:00,
2013-01-01 07:52:00,38.4,29.1,29.89,SW,231,1.0,2.0,69,0.00,,,0.01,Wunderground v.1.15,2013-01-01 12:52:00,
2013-01-01 07:57:00,38.4,29.5,29.89,SSW,208,2.0,3.0,70,0.00,,,0.01,Wunderground v.1.15,2013-01-01 12:57:00,
2013-01-01 08:02:00,38.4,29.5,29.90,SW,220,1.0,3.0,70,0.00,,,0.01,Wunderground v.1.15,2013-01-01 13:02:00,
2013-01-01 08:07:00,38.4,29.5,29.90,SW,229,1.0,3.0,70,0.00,,,0.01,Wunderground v.1.15,2013-01-01 13:07:00,
2013-01-01 08:12:00,38.4,29.5,29.90,SW,233,2.0,2.0,70,0.00,,,0.01,Wunderground v.1.15,2013-01-01 13:12:00,
2013-01-01 08:17:00,38.4,29.5,29.90,SW,215,2.0,3.0,70,0.00,,,0.01,Wunderground v.1.15,2013-01-01 13:17:00,
2013-01-01 08:22:00,38.4,29.5,29.90,SSW,205,4.0,4.0,70,0.00,,,0.01,Wunderground v.1.15,2013-01-01 13:22:00,
2013-01-01 08:27:00,38.4,29.8,29.90,WSW,248,3.0,4.0,71,0.00,,,0.01,Wunderground v.1.15,2013-01-01 13:27:00,
2013-01-01 08:32:00,38.3,29.7,29.90,SSW,196,2.0,2.0,71,0.00,,,0.01,Wunderground v.1.15,2013-01-01 13:32:00,
2013-01-01 08:37:00,38.3,29.7,29.90,WSW,246,1.0,4.0,71,0.00,,,0.01,Wunderground v.1.15,2013-01-01 13:37:00,
2013-01-01 08:42:00,38.3,29.7,29.90,SW,227,2.0,4.0,71,0.00,,,0.01,Wunderground v.1.15,2013-01-01 13:42:00,
2013-01-01 08:47:00,38.4,30.2,29.89,SW,215,1.0,4.0,72,0.00,,,0.01,Wunderground v.1.15,2013-01-01 13:47:00,
2013-01-01 08:52:00,38.4,30.2,29.90,WSW,247,2.0,3.0,72,0.00,,,0.01,Wunderground v.1.15,2013-01-01 13:52:00,
2013-01-01 08:57:00,38.4,30.2,29.90,South,187,4.0,4.0,72,0.00,,,0.01,Wunderground v.1.15,2013-01-01 13:57:00,
2013-01-01 09:02:00,38.4,30.2,29.90,SW,214,3.0,3.0,72,0.00,,,0.01,Wunderground v.1.15,2013-01-01 14:02:00,
2013-01-01 09:07:00,38.4,29.8,29.90,SSW,204,1.0,4.0,71,0.00,,,0.01,Wunderground v.1.15,2013-01-01 14:07:00,
2013-01-01 09:12:00,38.4,29.8,29.90,West,269,1.0,2.0,71,0.00,,,0.01,Wunderground v.1.15,2013-01-01 14:12:00,
2013-01-01 09:17:00,38.5,30.3,29.90,SW,231,1.0,4.0,72,0.00,,,0.01,Wunderground v.1.15,2013-01-01 14:17:00,
2013-01-01 09:22:00,38.5,29.9,29.90,West,267,1.0,4.0,71,0.00,,,0.01,Wunderground v.1.15,2013-01-01 14:22:00,
2013-01-01 09:27:00,38.6,30.0,29.91,SW,215,3.0,4.0,71,0.00,,,0.01,Wunderground v.1.15,2013-01-01 14:27:00,
2013-01-01 09:32:00,38.6,30.0,29.90,SW,219,2.0,3.0,71,0.00,,,0.01,Wunderground v.1.15,2013-01-01 14:32:00,
2013-01-01 09:37:00,38.7,30.1,29.90,SSW,206,2.0,5.0,71,0.00,,,0.01,Wunderground v.1.15,2013-01-01 14:37:00,
2013-01-01 09:42:00,38.7,30.1,29.90,West,260,1.0,2.0,71,0.00,,,0.01,Wunderground v.1.15,2013-01-01 14:42:00,
2013-01-01 09:47:00,38.7,30.1,29.90,SSW,213,2.0,4.0,71,0.00,,,0.01,Wunderground v.1.15,2013-01-01 14:47:00,
2013-01-01 09:52:00,38.8,29.8,29.91,West,262,2.0,2.0,70,0.00,,,0.01,Wunderground v.1.15,2013-01-01 14:52:00,
2013-01-01 09:57:00,38.9,29.9,29.91,West,267,2.0,4.0,70,0.00,,,0.01,Wunderground v.1.15,2013-01-01 14:57:00,
2013-01-01 10:02:00,38.9,29.9,29.91,SW,223,2.0,3.0,70,0.00,,,0.01,Wunderground v.1.15,2013-01-01 15:02:00,
2013-01-01 10:07:00,39.0,30.0,29.90,WSW,248,1.0,4.0,70,0.00,,,0.01,Wunderground v.1.15,2013-01-01 15:07:00,
2013-01-01 10:12:00,39.1,30.1,29.90,SW,228,2.0,2.0,70,0.00,,,0.01,Wunderground v.1.15,2013-01-01 15:12:00,
2013-01-01 10:17:00,39.1,30.1,29.90,WSW,250,2.0,4.0,70,0.00,,,0.01,Wunderground v.1.15,2013-01-01 15:17:00,
2013-01-01 10:22:00,39.2,30.2,29.90,West,261,2.0,4.0,70,0.00,,,0.01,Wunderground v.1.15,2013-01-01 15:22:00,
2013-01-01 10:27:00,39.3,30.0,29.90,WSW,244,3.0,5.0,69,0.00,,,0.01,Wunderground v.1.15,2013-01-01 15:27:00,
2013-01-01 10:32:00,39.3,30.0,29.91,WSW,258,1.0,3.0,69,0.00,,,0.01,Wunderground v.1.15,2013-01-01 15:32:00,
2013-01-01 10:37:00,39.3,30.0,29.90,WSW,253,2.0,5.0,69,0.00,,,0.01,Wunderground v.1.15,2013-01-01 15:37:00,
2013-01-01 10:42:00,39.2,29.9,29.90,WSW,244,0.0,6.0,69,0.00,,,0.01,Wunderground v.1.15,2013-01-01 15:42:00,
2013-01-01 10:47:00,39.3,30.0,29.90,WSW,258,2.0,6.0,69,0.00,,,0.01,Wunderground v.1.15,2013-01-01 15:47:00,
2013-01-01 10:52:00,39.3,29.6,29.90,SSW,203,1.0,2.0,68,0.00,,,0.01,Wunderground v.1.15,2013-01-01 15:52:00,
2013-01-01 10:57:00,39.2,29.9,29.90,WSW,242,2.0,4.0,69,0.00,,,0.01,Wunderground v.1.15,2013-01-01 15:57:00,
2013-01-01 11:02:00,39.2,29.9,29.90,SW,232,2.0,3.0,69,0.00,,,0.01,Wunderground v.1.15,2013-01-01 16:02:00,
2013-01-01 11:07:00,39.2,29.9,29.90,West,277,0.0,3.0,69,0.00,,,0.01,Wunderground v.1.15,2013-01-01 16:07:00,
2013-01-01 11:12:00,39.1,29.8,29.90,North,352,3.0,3.0,69,0.00,,,0.01,Wunderground v.1.15,2013-01-01 16:12:00,
2013-01-01 11:17:00,39.1,29.8,29.90,NW,323,0.0,3.0,69,0.00,,,0.01,Wunderground v.1.15,2013-01-01 16:17:00,
2013-01-01 11:22:00,39.0,30.0,29.90,North,7,3.0,3.0,70,0.00,,,0.01,Wunderground v.1.15,2013-01-01 16:22:00,
2013-01-01 11:27:00,38.9,29.9,29.89,NNW,338,1.0,4.0,70,0.00,,,0.01,Wunderground v.1.15,2013-01-01 16:27:00,
2013-01-01 11:32:00,38.7,30.1,29.89,NNW,342,2.0,4.0,71,0.00,,,0.01,Wunderground v.1.15,2013-01-01 16:32:00,
2013-01-01 11:37:00,38.3,30.1,29.89,NNE,18,1.0,4.0,72,0.00,,,0.01,Wunderground v.1.15,2013-01-01 16:37:00,
2013-01-01 11:42:00,38.0,30.1,29.88,NW,325,2.0,4.0,73,0.00,,,0.01,Wunderground v.1.15,2013-01-01 16:42:00,
2013-01-01 11:47:00,37.8,29.9,29.88,North,353,2.0,4.0,73,0.00,,,0.01,Wunderground v.1.15,2013-01-01 16:47:00,
2013-01-01 11:52:00,37.5,29.6,29.88,WNW,284,2.0,5.0,73,0.00,,,0.01,Wunderground v.1.15,2013-01-01 16:52:00,
2013-01-01 11:58:00,37.4,29.2,29.88,SSW,204,3.0,5.0,72,0.00,,,0.01,Wunderground v.1.15,2013-01-01 16:58:00,
2013-01-01 12:06:00,37.3,28.8,29.88,NNW,341,3.0,4.0,71,0.00,,,0.01,Wunderground v.1.15,2013-01-01 17:06:00,
2013-01-01 12:11:00,37.2,28.3,29.88,WNW,294,3.0,3.0,70,0.00,,,0.01,Wunderground v.1.15,2013-01-01 17:11:00,
2013-01-01 12:16:00,37.1,28.2,29.88,NW,320,1.0,3.0,70,0.00,,,0.01,Wunderground v.1.15,2013-01-01 17:16:00,
2013-01-01 12:21:00,37.1,28.2,29.88,NW,306,2.0,3.0,70,0.00,,,0.01,Wunderground v.1.15,2013-01-01 17:21:00,
2013-01-01 12:26:00,37.1,27.9,29.88,NNW,344,2.0,3.0,69,0.00,,,0.01,Wunderground v.1.15,2013-01-01 17:26:00,
2013-01-01 12:31:00,37.1,27.9,29.88,NNW,344,0.0,1.0,69,0.00,,,0.01,Wunderground v.1.15,2013-01-01 17:31:00,
2013-01-01 12:36:00,37.1,27.5,29.88,NW,315,2.0,6.0,68,0.00,,,0.01,Wunderground v.1.15,2013-01-01 17:36:00,
2013-01-01 12:42:00,37.1,27.5,29.88,NNW,329,1.0,2.0,68,0.00,,,0.01,Wunderground v.1.15,2013-01-01 17:42:00,
2013-01-01 12:47:00,37.0,27.4,29.88,NNW,331,2.0,4.0,68,0.00,,,0.01,Wunderground v.1.15,2013-01-01 17:47:00,
2013-01-01 12:52:00,37.0,27.4,29.88,NW,311,2.0,2.0,68,0.00,,,0.01,Wunderground v.1.15,2013-01-01 17:52:00,
2013-01-01 12:57:00,37.0,27.1,29.88,WNW,294,0.0,3.0,67,0.00,,,0.01,Wunderground v.1.15,2013-01-01 17:57:00,
2013-01-01 13:02:00,37.0,27.4,29.88,West,265,1.0,2.0,68,0.00,,,0.01,Wunderground v.1.15,2013-01-01 18:02:00,
2013-01-01 13:07:00,37.0,27.4,29.88,NNW,346,1.0,3.0,68,0.00,,,0.01,Wunderground v.1.15,2013-01-01 18:07:00,
2013-01-01 13:12:00,37.0,27.4,29.87,West,272,2.0,2.0,68,0.00,,,0.01,Wunderground v.1.15,2013-01-01 18:12:00,
2013-01-01 13:17:00,37.0,27.4,29.87,SW,225,2.0,2.0,68,0.00,,,0.01,Wunderground v.1.15,2013-01-01 18:17:00,
2013-01-01 13:22:00,37.0,27.4,29.86,WNW,294,1.0,2.0,68,0.00,,,0.01,Wunderground v.1.15,2013-01-01 18:22:00,
2013-01-01 13:27:00,37.1,27.5,29.86,West,265,1.0,3.0,68,0.00,,,0.01,Wunderground v.1.15,2013-01-01 18:27:00,
2013-01-01 13:32:00,37.1,27.2,29.87,West,265,1.0,1.0,67,0.00,,,0.01,Wunderground v.1.15,2013-01-01 18:32:00,
2013-01-01 13:37:00,37.2,27.2,29.86,West,267,0.0,1.0,67,0.00,,,0.01,Wunderground v.1.15,2013-01-01 18:37:00,
2013-01-01 13:42:00,37.2,27.6,29.86,NW,311,0.0,1.0,68,0.00,,,0.01,Wunderground v.1.15,2013-01-01 18:42:00,
2013-01-01 13:47:00,37.3,27.7,29.86,North,4,1.0,2.0,68,0.00,,,0.01,Wunderground v.1.15,2013-01-01 18:47:00,
2013-01-01 13:52:00,37.4,27.4,29.85,WNW,298,1.0,2.0,67,0.00,,,0.01,Wunderground v.1.15,2013-01-01 18:52:00,
2013-01-01 13:57:00,37.5,27.5,29.85,NNW,346,1.0,3.0,67,0.00,,,0.01,Wunderground v.1.15,2013-01-01 18:57:00,
2013-01-01 14:02:00,37.6,28.0,29.85,West,260,1.0,1.0,68,0.00,,,0.01,Wunderground v.1.15,2013-01-01 19:02:00,
2013-01-01 14:07:00,37.7,27.4,29.85,West,265,3.0,3.0,66,0.00,,,0.01,Wunderground v.1.15,2013-01-01 19:07:00,
2013-01-01 14:12:00,37.7,27.0,29.85,NNW,341,1.0,2.0,65,0.00,,,0.01,Wunderground v.1.15,2013-01-01 19:12:00,
2013-01-01 14:17:00,37.8,27.5,29.85,WSW,238,1.0,3.0,66,0.00,,,0.01,Wunderground v.1.15,2013-01-01 19:17:00,
2013-01-01 14:22:00,37.8,27.1,29.85,NW,306,2.0,5.0,65,0.00,,,0.01,Wunderground v.1.15,2013-01-01 19:22:00,
2013-01-01 14:27:00,37.9,27.2,29.86,West,278,1.0,5.0,65,0.00,,,0.01,Wunderground v.1.15,2013-01-01 19:27:00,
2013-01-01 14:32:00,38.0,26.9,29.86,West,277,0.0,2.0,64,0.00,,,0.01,Wunderground v.1.15,2013-01-01 19:32:00,
2013-01-01 14:37:00,38.1,27.0,29.86,WSW,242,1.0,2.0,64,0.00,,,0.01,Wunderground v.1.15,2013-01-01 19:37:00,
2013-01-01 14:42:00,38.2,25.9,29.86,WSW,256,1.0,3.0,61,0.00,,,0.01,Wunderground v.1.15,2013-01-01 19:42:00,
2013-01-01 14:47:00,38.4,25.3,29.86,West,275,1.0,3.0,59,0.00,,,0.01,Wunderground v.1.15,2013-01-01 19:47:00,
2013-01-01 14:52:00,38.4,25.3,29.86,WNW,284,3.0,3.0,59,0.00,,,0.01,Wunderground v.1.15,2013-01-01 19:52:00,
2013-01-01 14:57:00,38.5,25.4,29.85,NW,305,2.0,4.0,59,0.00,,,0.01,Wunderground v.1.15,2013-01-01 19:57:00,
2013-01-01 15:02:00,38.5,25.0,29.86,NNE,14,2.0,3.0,58,0.00,,,0.01,Wunderground v.1.15,2013-01-01 20:02:00,
2013-01-01 15:07:00,38.4,24.9,29.87,West,279,2.0,3.0,58,0.00,,,0.01,Wunderground v.1.15,2013-01-01 20:07:00,
2013-01-01 15:12:00,38.4,24.1,29.86,WNW,294,0.0,2.0,56,0.00,,,0.01,Wunderground v.1.15,2013-01-01 20:12:00,
2013-01-01 15:17:00,38.4,23.6,29.86,NNW,341,2.0,4.0,55,0.00,,,0.01,Wunderground v.1.15,2013-01-01 20:17:00,
2013-01-01 15:22:00,38.3,23.5,29.86,NNW,342,3.0,5.0,55,0.00,,,0.01,Wunderground v.1.15,2013-01-01 20:22:00,
2013-01-01 15:27:00,38.2,23.4,29.86,North,1,2.0,5.0,55,0.00,,,0.01,Wunderground v.1.15,2013-01-01 20:27:00,
2013-01-01 15:32:00,38.1,22.5,29.87,WNW,289,2.0,6.0,53,0.00,,,0.01,Wunderground v.1.15,2013-01-01 20:32:00,
2013-01-01 15:37:00,38.0,22.4,29.88,SSW,195,1.0,6.0,53,0.00,,,0.01,Wunderground v.1.15,2013-01-01 20:37:00,
2013-01-01 15:42:00,37.9,21.8,29.87,West,278,0.0,3.0,52,0.00,,,0.01,Wunderground v.1.15,2013-01-01 20:42:00,
2013-01-01 15:47:00,37.9,22.3,29.89,NW,325,1.0,3.0,53,0.00,,,0.01,Wunderground v.1.15,2013-01-01 20:47:00,
2013-01-01 15:52:00,37.9,22.7,29.89,NNW,340,2.0,4.0,54,0.00,,,0.01,Wunderground v.1.15,2013-01-01 20:52:00,
2013-01-01 15:57:00,37.8,23.1,29.89,North,356,2.0,4.0,55,0.00,,,0.01,Wunderground v.1.15,2013-01-01 20:57:00,
2013-01-01 16:02:00,37.7,22.5,29.90,NNE,15,2.0,3.0,54,0.00,,,0.01,Wunderground v.1.15,2013-01-01 21:02:00,
2013-01-01 16:07:00,37.5,22.8,29.90,WSW,248,2.0,4.0,55,0.00,,,0.01,Wunderground v.1.15,2013-01-01 21:07:00,
2013-01-01 16:12:00,37.3,22.6,29.90,WNW,294,3.0,3.0,55,0.00,,,0.01,Wunderground v.1.15,2013-01-01 21:12:00,
2013-01-01 16:17:00,37.1,22.4,29.90,NNW,335,2.0,4.0,55,0.00,,,0.01,Wunderground v.1.15,2013-01-01 21:17:00,
2013-01-01 16:22:00,36.8,22.6,29.90,NNW,336,0.0,2.0,56,0.00,,,0.01,Wunderground v.1.15,2013-01-01 21:22:00,
2013-01-01 16:27:00,36.5,22.3,29.91,NNW,339,2.0,4.0,56,0.00,,,0.01,Wunderground v.1.15,2013-01-01 21:27:00,
2013-01-01 16:32:00,36.2,22.4,29.90,NNE,21,2.0,2.0,57,0.00,,,0.01,Wunderground v.1.15,2013-01-01 21:32:00,
2013-01-01 16:37:00,36.1,21.9,29.90,NW,314,1.0,5.0,56,0.00,,,0.01,Wunderground v.1.15,2013-01-01 21:37:00,
2013-01-01 16:43:00,35.9,22.1,29.90,North,1,0.0,5.0,57,0.00,,,0.01,Wunderground v.1.15,2013-01-01 21:43:00,
2013-01-01 16:48:00,35.8,22.0,29.89,North,356,5.0,5.0,57,0.00,,,0.01,Wunderground v.1.15,2013-01-01 21:48:00,
2013-01-01 16:53:00,35.6,21.0,29.90,NE,46,2.0,5.0,55,0.00,,,0.01,Wunderground v.1.15,2013-01-01 21:53:00,
2013-01-01 16:58:00,35.5,20.9,29.91,North,352,1.0,7.0,55,0.00,,,0.01,Wunderground v.1.15,2013-01-01 21:58:00,
2013-01-01 17:03:00,35.4,20.4,29.91,West,267,2.0,10.0,54,0.00,,,0.01,Wunderground v.1.15,2013-01-01 22:03:00,
2013-01-01 17:08:00,35.3,20.3,29.92,NNW,332,1.0,10.0,54,0.00,,,0.01,Wunderground v.1.15,2013-01-01 22:08:00,
2013-01-01 17:13:00,35.2,19.8,29.92,WNW,298,0.0,2.0,53,0.00,,,0.01,Wunderground v.1.15,2013-01-01 22:13:00,
2013-01-01 17:18:00,35.0,19.6,29.92,WNW,289,3.0,4.0,53,0.00,,,0.01,Wunderground v.1.15,2013-01-01 22:18:00,
2013-01-01 17:23:00,34.9,19.0,29.92,WSW,252,2.0,6.0,52,0.00,,,0.01,Wunderground v.1.15,2013-01-01 22:23:00,
2013-01-01 17:28:00,34.8,18.9,29.92,NW,322,3.0,6.0,52,0.00,,,0.01,Wunderground v.1.15,2013-01-01 22:28:00,
2013-01-01 17:33:00,34.7,19.3,29.93,NNW,339,2.0,4.0,53,0.00,,,0.01,Wunderground v.1.15,2013-01-01 22:33:00,
2013-01-01 17:38:00,34.6,19.6,29.93,WSW,248,0.0,4.0,54,0.00,,,0.01,Wunderground v.1.15,2013-01-01 22:38:00,
2013-01-01 17:43:00,34.5,19.5,29.93,North,349,1.0,2.0,54,0.00,,,0.01,Wunderground v.1.15,2013-01-01 22:43:00,
2013-01-01 17:48:00,34.4,19.5,29.94,NNW,330,2.0,4.0,54,0.00,,,0.01,Wunderground v.1.15,2013-01-01 22:48:00,
2013-01-01 17:53:00,34.3,18.9,29.93,West,273,1.0,3.0,53,0.00,,,0.01,Wunderground v.1.15,2013-01-01 22:53:00,
2013-01-01 17:58:00,34.2,18.4,29.93,North,356,2.0,7.0,52,0.00,,,0.01,Wunderground v.1.15,2013-01-01 22:58:00,
2013-01-01 18:03:00,34.0,18.6,29.94,NNE,14,1.0,6.0,53,0.00,,,0.01,Wunderground v.1.15,2013-01-01 23:03:00,
2013-01-01 18:08:00,33.9,18.6,29.94,North,5,2.0,6.0,53,0.00,,,0.01,Wunderground v.1.15,2013-01-01 23:08:00,
2013-01-01 18:16:00,33.5,18.2,29.93,North,354,4.0,4.0,53,0.00,,,0.01,Wunderground v.1.15,2013-01-01 23:16:00,
2013-01-01 18:21:00,33.3,18.0,29.93,WNW,294,0.0,2.0,53,0.00,,,0.01,Wunderground v.1.15,2013-01-01 23:21:00,
2013-01-01 18:26:00,33.2,17.9,29.94,NNW,333,1.0,3.0,53,0.00,,,0.01,Wunderground v.1.15,2013-01-01 23:26:00,
2013-01-01 18:31:00,33.0,18.1,29.95,NNE,30,6.0,6.0,54,0.00,,,0.01,Wunderground v.1.15,2013-01-01 23:31:00,
2013-01-01 18:36:00,32.9,18.1,29.95,NNW,343,0.0,6.0,54,0.00,,,0.01,Wunderground v.1.15,2013-01-01 23:36:00,
2013-01-01 18:41:00,32.8,18.0,29.95,NNE,22,0.0,1.0,54,0.00,,,0.01,Wunderground v.1.15,2013-01-01 23:41:00,
2013-01-01 18:46:00,32.7,17.9,29.96,NNW,347,2.0,2.0,54,0.00,,,0.01,Wunderground v.1.15,2013-01-01 23:46:00,
2013-01-01 18:51:00,32.5,17.7,29.96,West,275,3.0,3.0,54,0.00,,,0.01,Wunderground v.1.15,2013-01-01 23:51:00,
2013-01-01 18:57:00,32.4,17.2,29.96,NNW,341,0.0,7.0,53,0.00,,,0.01,Wunderground v.1.15,2013-01-01 23:57:00,
2013-01-01 19:02:00,32.3,17.5,29.96,NNW,341,1.0,2.0,54,0.00,,,0.01,Wunderground v.1.15,2013-01-02 00:02:00,
2013-01-01 19:07:00,32.2,17.4,29.96,North,349,1.0,3.0,54,0.00,,,0.01,Wunderground v.1.15,2013-01-02 00:07:00,
2013-01-01 19:12:00,32.1,17.3,29.97,North,349,2.0,2.0,54,0.00,,,0.01,Wunderground v.1.15,2013-01-02 00:12:00,
2013-01-01 19:17:00,32.0,17.2,29.97,North,359,1.0,3.0,54,0.00,,,0.01,Wunderground v.1.15,2013-01-02 00:17:00,
2013-01-01 19:22:00,31.9,17.1,29.97,North,354,0.0,1.0,54,0.00,,,0.01,Wunderground v.1.15,2013-01-02 00:22:00,
2013-01-01 19:27:00,31.8,17.5,29.97,North,354,1.0,2.0,55,0.00,,,0.01,Wunderground v.1.15,2013-01-02 00:27:00,
2013-01-01 19:32:00,31.7,17.4,29.97,West,269,0.0,1.0,55,0.00,,,0.01,Wunderground v.1.15,2013-01-02 00:32:00,
2013-01-01 19:37:00,31.6,17.3,29.97,NNW,333,1.0,2.0,55,0.00,,,0.01,Wunderground v.1.15,2013-01-02 00:37:00,
2013-01-01 19:42:00,31.5,17.6,29.96,NNE,24,0.0,1.0,56,0.00,,,0.01,Wunderground v.1.15,2013-01-02 00:42:00,
2013-01-01 19:47:00,31.4,17.5,29.96,NNW,332,2.0,3.0,56,0.00,,,0.01,Wunderground v.1.15,2013-01-02 00:47:00,
2013-01-01 19:52:00,31.2,17.7,29.97,NW,323,3.0,4.0,57,0.00,,,0.01,Wunderground v.1.15,2013-01-02 00:52:00,
2013-01-01 19:57:00,31.1,17.6,29.97,North,351,4.0,4.0,57,0.00,,,0.01,Wunderground v.1.15,2013-01-02 00:57:00,
2013-01-01 20:02:00,31.0,17.1,29.97,WSW,250,1.0,3.0,56,0.00,,,0.01,Wunderground v.1.15,2013-01-02 01:02:00,
2013-01-01 20:07:00,30.9,16.6,29.97,NNW,345,2.0,4.0,55,0.00,,,0.01,Wunderground v.1.15,2013-01-02 01:07:00,
2013-01-01 20:12:00,30.8,16.9,29.98,NNW,334,2.0,3.0,56,0.00,,,0.01,Wunderground v.1.15,2013-01-02 01:12:00,
2013-01-01 20:17:00,30.8,16.9,29.98,NW,325,0.0,3.0,56,0.00,,,0.01,Wunderground v.1.15,2013-01-02 01:17:00,
2013-01-01 20:22:00,30.7,17.3,29.99,North,355,1.0,3.0,57,0.00,,,0.01,Wunderground v.1.15,2013-01-02 01:22:00,
2013-01-01 20:27:00,30.5,17.1,29.99,WNW,298,2.0,3.0,57,0.00,,,0.01,Wunderground v.1.15,2013-01-02 01:27:00,
2013-01-01 20:32:00,30.5,16.7,29.99,West,273,1.0,2.0,56,0.00,,,0.01,Wunderground v.1.15,2013-01-02 01:32:00,
2013-01-01 20:37:00,30.3,16.0,29.99,NNW,333,3.0,3.0,55,0.00,,,0.01,Wunderground v.1.15,2013-01-02 01:37:00,
2013-01-01 20:42:00,30.2,16.0,29.99,NNW,328,0.0,3.0,55,0.00,,,0.01,Wunderground v.1.15,2013-01-02 01:42:00,
2013-01-01 20:47:00,30.1,16.3,29.99,North,349,4.0,4.0,56,0.00,,,0.01,Wunderground v.1.15,2013-01-02 01:47:00,
2013-01-01 20:52:00,29.9,16.1,29.99,NW,313,1.0,2.0,56,0.00,,,0.01,Wunderground v.1.15,2013-01-02 01:52:00,
2013-01-01 20:57:00,29.8,15.6,29.98,NW,319,1.0,2.0,55,0.00,,,0.01,Wunderground v.1.15,2013-01-02 01:57:00,
2013-01-01 21:02:00,29.6,15.4,29.99,SW,225,1.0,5.0,55,0.00,,,0.01,Wunderground v.1.15,2013-01-02 02:02:00,
2013-01-01 21:07:00,29.4,15.2,29.99,NNW,348,2.0,5.0,55,0.00,,,0.01,Wunderground v.1.15,2013-01-02 02:07:00,
2013-01-01 21:12:00,29.3,15.5,29.99,West,275,2.0,2.0,56,0.00,,,0.01,Wunderground v.1.15,2013-01-02 02:12:00,
2013-01-01 21:17:00,29.2,15.4,30.00,West,267,4.0,8.0,56,0.00,,,0.01,Wunderground v.1.15,2013-01-02 02:17:00,
2013-01-01 21:22:00,29.2,15.4,30.00,NNW,335,3.0,3.0,56,0.00,,,0.01,Wunderground v.1.15,2013-01-02 02:22:00,
2013-01-01 21:27:00,28.9,15.6,30.00,NNW,341,0.0,3.0,57,0.00,,,0.01,Wunderground v.1.15,2013-01-02 02:27:00,
2013-01-01 21:32:00,28.8,15.5,30.00,NW,315,1.0,2.0,57,0.00,,,0.01,Wunderground v.1.15,2013-01-02 02:32:00,
2013-01-01 21:37:00,28.8,15.5,30.00,NNW,346,1.0,4.0,57,0.00,,,0.01,Wunderground v.1.15,2013-01-02 02:37:00,
2013-01-01 21:42:00,28.7,15.8,30.00,NNE,23,1.0,3.0,58,0.00,,,0.01,Wunderground v.1.15,2013-01-02 02:42:00,
2013-01-01 21:47:00,28.6,15.7,30.00,NNE,25,5.0,5.0,58,0.00,,,0.01,Wunderground v.1.15,2013-01-02 02:47:00,
2013-01-01 21:52:00,28.3,14.6,30.01,NNW,336,2.0,4.0,56,0.00,,,0.01,Wunderground v.1.15,2013-01-02 02:52:00,
2013-01-01 21:57:00,28.1,14.8,30.01,NNW,348,0.0,4.0,57,0.00,,,0.01,Wunderground v.1.15,2013-01-02 02:57:00,
2013-01-01 22:02:00,27.9,14.6,30.01,NNW,332,1.0,2.0,57,0.00,,,0.01,Wunderground v.1.15,2013-01-02 03:02:00,
2013-01-01 22:07:00,27.8,13.7,30.01,West,278,2.0,6.0,55,0.00,,,0.01,Wunderground v.1.15,2013-01-02 03:07:00,
2013-01-01 22:12:00,27.6,13.1,30.02,NW,319,2.0,5.0,54,0.00,,,0.01,Wunderground v.1.15,2013-01-02 03:12:00,
2013-01-01 22:17:00,27.4,12.9,30.02,North,355,4.0,5.0,54,0.00,,,0.01,Wunderground v.1.15,2013-01-02 03:17:00,
2013-01-01 22:23:00,27.3,12.8,30.02,North,5,2.0,3.0,54,0.00,,,0.01,Wunderground v.1.15,2013-01-02 03:23:00,
2013-01-01 22:28:00,27.2,13.1,30.02,NNW,348,1.0,7.0,55,0.00,,,0.01,Wunderground v.1.15,2013-01-02 03:28:00,
2013-01-01 22:33:00,27.1,12.6,30.02,SSW,205,3.0,3.0,54,0.00,,,0.01,Wunderground v.1.15,2013-01-02 03:33:00,
2013-01-01 22:38:00,26.9,12.5,30.03,WSW,252,1.0,8.0,54,0.00,,,0.01,Wunderground v.1.15,2013-01-02 03:38:00,
2013-01-01 22:43:00,26.8,12.4,30.03,NNW,342,3.0,4.0,54,0.00,,,0.01,Wunderground v.1.15,2013-01-02 03:43:00,
2013-01-01 22:48:00,26.7,13.1,30.03,NE,48,2.0,4.0,56,0.00,,,0.01,Wunderground v.1.15,2013-01-02 03:48:00,
2013-01-01 22:53:00,26.6,12.6,30.03,NNW,328,1.0,3.0,55,0.00,,,0.01,Wunderground v.1.15,2013-01-02 03:53:00,
2013-01-01 22:58:00,26.5,12.9,30.03,West,273,2.0,5.0,56,0.00,,,0.01,Wunderground v.1.15,2013-01-02 03:58:00,
2013-01-01 23:03:00,26.4,12.8,30.03,NW,304,1.0,4.0,56,0.00,,,0.01,Wunderground v.1.15,2013-01-02 04:03:00,
2013-01-01 23:08:00,26.4,12.8,30.03,NE,39,3.0,4.0,56,0.00,,,0.01,Wunderground v.1.15,2013-01-02 04:08:00,
2013-01-01 23:13:00,26.3,13.1,30.03,NNW,329,1.0,2.0,57,0.00,,,0.01,Wunderground v.1.15,2013-01-02 04:13:00,
2013-01-01 23:18:00,26.2,13.0,30.03,NW,306,1.0,2.0,57,0.00,,,0.01,Wunderground v.1.15,2013-01-02 04:18:00,
2013-01-01 23:23:00,26.1,12.9,30.03,North,355,1.0,5.0,57,0.00,,,0.01,Wunderground v.1.15,2013-01-02 04:23:00,
2013-01-01 23:28:00,26.0,12.8,30.03,WSW,253,1.0,5.0,57,0.00,,,0.01,Wunderground v.1.15,2013-01-02 04:28:00,
2013-01-01 23:33:00,25.9,13.1,30.03,West,265,2.0,7.0,58,0.00,,,0.01,Wunderground v.1.15,2013-01-02 04:33:00,
2013-01-01 23:38:00,25.8,13.0,30.03,NNW,342,1.0,7.0,58,0.00,,,0.01,Wunderground v.1.15,2013-01-02 04:38:00,
2013-01-01 23:43:00,25.8,13.0,30.03,WNW,294,2.0,4.0,58,0.00,,,0.01,Wunderground v.1.15,2013-01-02 04:43:00,
2013-01-01 23:48:00,25.7,12.9,30.03,North,360,2.0,5.0,58,0.00,,,0.01,Wunderground v.1.15,2013-01-02 04:48:00,
2013-01-01 23:53:00,25.6,13.2,30.02,NW,307,2.0,2.0,59,0.00,,,0.01,Wunderground v.1.15,2013-01-02 04:53:00,
2013-01-01 23:58:00,25.5,13.1,30.03,NW,304,7.0,7.0,59,0.00,,,0.01,Wunderground v.1.15,2013-01-02 04:58:00,